Location: Kuffner-Sternwarte
(48.2130°N, 16.2960°E)
Time: 08:12:36
(UTC+01:00)

COROT - Pass Details

Date: 19 August 2018
Orbit: 599 x 890 km, 90.0° (Epoch: 13 December)

Event Time Altitude Azimuth Distance (km) Brightness Sun altitude
Exits shadow 04:54:40 - 210° (SSW) 2,252 7.9 -9.7°
Reaches altitude 10° 04:54:55 10° 211° (SSW) 2,162 7.8 -9.7°
Maximum altitude 04:59:12 33° 275° (W) 1,128 6.5 -9.1°
Drops below altitude 10° 05:03:14 10° 340° (NNW) 2,037 8.3 -8.5°
Sets 05:05:35 0° 350° (N) 2,919 9.3 -8.2°
